[[{"header":{"parameterUnit":"m.s-1","parameterCategory":1,"la1":30.2991,"la2":30.254,"lo1":-89.0895,"lo2":-89.0444,"dy":0.0017,"dx":0.0017,"nx":28,"ny":28,"refTime":"2024-07-10T21:00:00:Z","depth":0,"parameterNumber":2,"parameterNumberName":"U-component_of_WINDS"},"data":[0,0,0,0,0,0,0,0,0,0,0,0,0,0,0,0,0,0,0,0,0,0,0,0,0,0,0,0,0,0,0,0,0,0,0,0,0,0,0,0,0,0,0,0,0,0,0,0,0,0,0,0,0,0,0,0,0,0,2.6154,2.6155,0,2.6255,2.6256,2.6257,2.6251,2.6249,2.6248,2.6247,2.6348,2.6352,2.6356,0,0,0,0,0,0,0,0,0,0,0,0,0,2.5956,2.5959,2.6154,2.6156,2.6157,2.6255,2.6256,2.6257,2.6251,2.6249,2.6248,2.6246,2.6347,2.6351,2.6356,0,0,0,0,0,0,0,0,0,0,0,0,0,2.6048,2.5961,2.6154,2.6166,2.6168,2.6254,2.6256,2.6258,2.6251,2.6249,2.6247,2.6245,2.6345,2.6351,2.6357,2.6438,0,0,2.6376,2.6378,0,0,0,0,0,0,0,0,2.6042,2.6055,2.6163,2.6165,2.6167,2.6238,2.6223,2.6318,2.6252,2.622,2.6246,2.6244,2.6313,2.6322,2.6345,2.6443,2.6448,2.6376,2.638,2.6382,2.6384,0,0,0,0,0,0,0,2.6036,2.605,2.6194,2.6164,2.6167,2.6165,2.6176,2.6241,2.6277,2.6222,2.6222,2.6234,2.6314,2.6339,2.6348,2.6449,2.6376,2.6381,2.6385,2.6388,2.6618,2.662,0,0,0,0,0,0,2.6027,2.6045,2.6191,2.6197,2.6098,2.617,2.6182,2.6218,2.6277,2.6284,2.6236,2.6233,2.633,2.634,2.6351,2.645,2.6382,2.6388,2.6392,2.6616,2.6619,2.6621,0,0,0,0,0,0,2.6023,2.604,2.6187,2.6121,2.614,2.6176,2.6216,2.6221,2.6246,2.6287,2.6293,2.6255,2.6329,2.6343,2.6417,2.6453,2.6391,2.6396,2.6613,2.6617,2.662,2.6648,0,0,0,0,0,0,2.6017,2.6039,2.6071,2.6122,2.6143,2.6251,2.6218,2.6224,2.6257,2.6255,2.6307,2.6313,2.6328,2.6408,2.6423,2.646,2.6401,2.661,2.6614,2.6619,2.6643,2.6652,2.6659,0,0,0,0,0,2.601,2.6074,2.6072,2.609,2.6184,2.6253,2.6265,2.6281,2.626,2.6292,2.6318,2.6312,2.6447,2.6415,2.6432,2.6472,2.6607,2.6613,2.6618,2.664,2.665,2.6659,0,0,0,0,0,0,2.6026,2.6081,2.6079,2.6162,2.6203,2.6252,2.6293,2.6292,2.6339,2.6335,2.6353,2.6364,2.6439,2.6463,2.6427,2.6554,2.6524,2.6533,2.6535,2.6545,2.6552,2.6544,2.6406,0,0,0,0,0,2.6039,2.6091,2.6137,2.6205,2.6226,2.6256,2.6287,2.6296,2.6338,2.6356,2.6387,2.6429,2.6481,2.6514,2.6564,2.6648,2.6658,2.6683,2.6691,2.6697,2.6704,2.6749,2.676,2.664,2.664,2.6639,0,0,2.6066,2.6103,2.6135,2.6209,2.6242,2.6295,2.627,2.6328,2.6367,2.6364,2.6436,2.6461,2.6508,2.6587,2.6623,2.661,2.674,2.6704,2.6709,2.6713,2.6756,2.6767,2.6777,2.6643,2.6643,2.6642,0,0,2.6143,2.6176,2.6236,2.627,2.632,2.634,2.6354,2.6404,2.642,2.6492,2.6491,2.6538,2.6627,2.6661,2.669,2.6779,2.6775,2.6795,2.6834,2.6878,2.6887,2.6896,2.6927,2.6938,2.6803,2.6803,2.6803,0,2.617,2.625,2.6267,2.6325,2.6358,2.6358,2.6419,2.645,2.6514,2.6536,2.652,2.6631,2.6664,2.675,2.6772,2.6795,2.6812,2.6789,2.6885,2.6894,2.6902,2.6931,2.6943,2.6805,2.6805,2.6804,2.6804,0,2.6281,2.6337,2.6379,2.6441,2.6479,2.6537,2.6563,2.6598,2.6604,2.6625,2.6699,2.6737,2.6795,2.6816,2.6823,2.6903,2.6893,2.6881,2.6851,2.6915,2.6943,2.6954,2.6808,2.6807,2.6806,2.6806,0,0,2.6369,2.644,2.6455,2.6483,2.6538,2.6581,2.664,2.6697,2.6726,2.6771,2.682,2.6895,2.6884,2.6917,2.6927,2.6965,2.7032,2.6948,2.695,2.6961,2.7123,2.713,2.7143,2.7031,2.7033,2.7035,2.7118,0,2.645,2.6555,2.6572,2.6663,2.6714,2.6716,2.6767,2.6806,2.6828,2.6874,2.6897,2.695,2.6932,2.6952,2.699,2.7016,2.7065,2.7011,2.7075,2.7077,2.7062,2.7158,2.7167,2.7243,2.7129,2.7131,2.7133,0,2.6559,2.6606,2.6703,2.6751,2.6773,2.6818,2.6871,2.6916,2.696,2.6973,2.701,2.7015,2.7076,2.7045,2.7128,2.709,2.7118,2.7135,2.7138,2.7144,2.7108,2.7165,2.7268,2.7279,2.715,2.7149,2.7148,0,2.6612,2.6699,2.6768,2.6792,2.685,2.6882,2.6908,2.695,2.6983,2.7029,2.705,2.7103,2.7132,2.7172,2.7192,2.7167,2.7273,2.7244,2.7284,2.7284,2.7305,2.7303,2.7413,2.7326,2.7325,2.7325,2.7325,0,2.67,2.6759,2.6793,2.6835,2.69,2.6919,2.6984,2.7008,2.7046,2.7093,2.7098,2.7141,2.7165,2.7212,2.7227,2.7293,2.7306,2.7318,2.7321,2.7316,2.7315,2.7334,2.7328,2.7328,2.7328,2.7327,2.7326,0,2.6769,2.6795,2.687,2.6919,2.6933,2.6979,2.702,2.7061,2.7082,2.7141,2.7156,2.719,2.7245,2.7269,2.7337,2.7348,2.7422,2.7422,2.7407,2.7408,2.7447,2.7442,2.7571,2.7589,2.7491,2.7492,2.7493,0,2.6823,2.6868,2.6922,2.6954,2.698,2.7032,2.7065,2.7086,2.712,2.7174,2.7208,2.7264,2.7309,2.7397,2.7428,2.748,2.748,2.7522,2.7488,2.7482,2.7479,2.7475,2.7479,2.7527,2.7528,2.7529,2.753,0,2.6916,2.6926,2.6974,2.7027,2.7067,2.7109,2.715,2.7176,2.7203,2.7241,2.7298,2.7334,2.7403,2.7458,2.7512,2.7538,2.7538,2.7541,2.7552,2.7547,2.7536,2.7541,2.7422,2.7537,2.7536,2.7536,2.7535,2.7535,2.6978,2.7018,2.7062,2.7115,2.7149,2.7187,2.7227,2.7254,2.7302,2.736,2.737,2.743,2.7473,2.7545,2.7573,2.7621,2.761,2.7628,2.7632,2.7635,2.7637,2.753,2.7631,2.763,2.763,2.763,2.763,0,2.7069,2.7098,2.7147,2.7205,2.7246,2.7244,2.729,2.7324,2.7378,2.7418,2.7462,2.7527,2.758,2.7615,2.7669,2.77,2.7701,2.7713,2.771,2.7716,2.7644,2.7628,2.7711,2.7711,2.7711,2.7711,2.7711,2.7711,2.7122,2.7189,2.7204,2.7287,2.7315,2.7375,2.7401,2.7436,2.7468,2.754,2.7585,2.7607,2.7645,2.7701,2.7749,2.7758,2.7777,2.7789,2.7797,2.7729,2.7721,2.7713,2.7697,2.7794,2.7794,2.7865,2.7865,2.7866]},{"header":{"parameterUnit":"m.s-1","parameterCategory":1,"la1":30.2991,"la2":30.254,"lo1":-89.0895,"lo2":-89.0444,"dy":0.0017,"dx":0.0017,"nx":28,"ny":28,"refTime":"2024-07-10T21:00:00:Z","depth":0,"parameterNumber":3,"parameterNumberName":"V-component_of_WINDS"},"data":[0,0,0,0,0,0,0,0,0,0,0,0,0,0,0,0,0,0,0,0,0,0,0,0,0,0,0,0,0,0,0,0,0,0,0,0,0,0,0,0,0,0,0,0,0,0,0,0,0,0,0,0,0,0,0,0,0,0,-0.7781,-0.7782,0,-0.7815,-0.7815,-0.7815,-0.7832,-0.7832,-0.7832,-0.7832,-0.7864,-0.7865,-0.7866,0,0,0,0,0,0,0,0,0,0,0,0,0,-0.773,-0.7731,-0.7781,-0.7782,-0.7782,-0.7815,-0.7815,-0.7815,-0.7832,-0.7832,-0.7832,-0.7832,-0.7864,-0.7865,-0.7866,0,0,0,0,0,0,0,0,0,0,0,0,0,-0.7757,-0.7731,-0.7781,-0.7794,-0.7796,-0.7814,-0.7815,-0.7816,-0.7832,-0.7832,-0.7832,-0.7832,-0.7864,-0.7865,-0.7866,-0.7874,0,0,-0.787,-0.7871,0,0,0,0,0,0,0,0,-0.7755,-0.7759,-0.7792,-0.7793,-0.7795,-0.7819,-0.7809,-0.7835,-0.7832,-0.7818,-0.7832,-0.7832,-0.7849,-0.7852,-0.7858,-0.7875,-0.7877,-0.787,-0.7871,-0.7871,-0.7872,0,0,0,0,0,0,0,-0.7753,-0.7757,-0.7794,-0.7792,-0.7794,-0.7798,-0.7802,-0.7814,-0.7833,-0.7819,-0.7821,-0.7824,-0.785,-0.7856,-0.7859,-0.7877,-0.787,-0.7871,-0.7872,-0.7873,-0.7903,-0.7903,0,0,0,0,0,0,-0.775,-0.7756,-0.7793,-0.7795,-0.7775,-0.7799,-0.7803,-0.7811,-0.7833,-0.7836,-0.7824,-0.7825,-0.7854,-0.7857,-0.786,-0.7871,-0.7871,-0.7873,-0.7873,-0.7903,-0.7903,-0.7903,0,0,0,0,0,0,-0.7748,-0.7753,-0.7792,-0.7776,-0.7781,-0.78,-0.7809,-0.7812,-0.7819,-0.7837,-0.784,-0.7828,-0.7854,-0.7858,-0.787,-0.7872,-0.7873,-0.7874,-0.7903,-0.7903,-0.7903,-0.7892,0,0,0,0,0,0,-0.7747,-0.7752,-0.7756,-0.7776,-0.7782,-0.7802,-0.7809,-0.7813,-0.7821,-0.7822,-0.7841,-0.7844,-0.7855,-0.7868,-0.7872,-0.7874,-0.7875,-0.7903,-0.7903,-0.7903,-0.7892,-0.7892,-0.7891,0,0,0,0,0,-0.7745,-0.7751,-0.7756,-0.776,-0.7787,-0.7802,-0.7806,-0.7819,-0.7821,-0.7824,-0.7836,-0.7843,-0.7871,-0.787,-0.7873,-0.7876,-0.7903,-0.7903,-0.7903,-0.7892,-0.7892,-0.7891,0,0,0,0,0,0,-0.773,-0.7754,-0.776,-0.7772,-0.7785,-0.7805,-0.781,-0.7817,-0.783,-0.783,-0.7845,-0.7849,-0.786,-0.7869,-0.7867,-0.7885,-0.7888,-0.7889,-0.7878,-0.7878,-0.7877,-0.7875,-0.7876,0,0,0,0,0,-0.7728,-0.7739,-0.7759,-0.7768,-0.7775,-0.7791,-0.7798,-0.7807,-0.7821,-0.7827,-0.7839,-0.7852,-0.7864,-0.7871,-0.7883,-0.7894,-0.7898,-0.7897,-0.7896,-0.7896,-0.7896,-0.7903,-0.7903,-0.7904,-0.7904,-0.7904,0,0,-0.7724,-0.7738,-0.7744,-0.7765,-0.7777,-0.7788,-0.7796,-0.7807,-0.7815,-0.7828,-0.7841,-0.7851,-0.7866,-0.7878,-0.7883,-0.7885,-0.7897,-0.7896,-0.7895,-0.7896,-0.7903,-0.7903,-0.7903,-0.7904,-0.7904,-0.7904,0,0,-0.7722,-0.7734,-0.7744,-0.7755,-0.7772,-0.7783,-0.7785,-0.7804,-0.7812,-0.7825,-0.7835,-0.7845,-0.7865,-0.7875,-0.7883,-0.7886,-0.7893,-0.789,-0.7886,-0.7892,-0.7892,-0.7892,-0.7894,-0.7894,-0.789,-0.789,-0.789,0,-0.7715,-0.7733,-0.7747,-0.7758,-0.7767,-0.778,-0.7789,-0.7799,-0.7819,-0.7825,-0.7827,-0.7853,-0.7864,-0.7878,-0.7879,-0.7885,-0.7888,-0.7887,-0.7891,-0.7891,-0.7892,-0.7893,-0.7893,-0.7889,-0.789,-0.789,-0.789,0,-0.7723,-0.7735,-0.774,-0.776,-0.7769,-0.7779,-0.7795,-0.7802,-0.781,-0.7821,-0.7834,-0.7848,-0.7863,-0.7868,-0.7875,-0.7883,-0.7884,-0.7889,-0.7892,-0.7891,-0.7892,-0.7893,-0.7889,-0.7889,-0.7889,-0.7889,0,0,-0.7712,-0.774,-0.7742,-0.7751,-0.7771,-0.778,-0.7791,-0.7806,-0.7813,-0.7826,-0.7835,-0.7852,-0.7856,-0.7865,-0.7875,-0.788,-0.7882,-0.7884,-0.7885,-0.7883,-0.7891,-0.7888,-0.7888,-0.7887,-0.7887,-0.7887,-0.789,0,-0.7713,-0.7733,-0.7747,-0.7761,-0.7772,-0.7785,-0.7795,-0.7808,-0.7818,-0.7829,-0.784,-0.7852,-0.7857,-0.7862,-0.7868,-0.788,-0.7884,-0.788,-0.7895,-0.7895,-0.7891,-0.7889,-0.7885,-0.7887,-0.7891,-0.7891,-0.7891,0,-0.7717,-0.7731,-0.7747,-0.7766,-0.7772,-0.778,-0.7795,-0.7805,-0.782,-0.7827,-0.7838,-0.7847,-0.7859,-0.7861,-0.7877,-0.7874,-0.7881,-0.7888,-0.7888,-0.789,-0.7893,-0.7891,-0.7889,-0.7889,-0.7892,-0.7892,-0.7892,0,-0.7708,-0.773,-0.7743,-0.775,-0.7773,-0.7779,-0.7788,-0.7804,-0.7812,-0.7825,-0.7831,-0.7845,-0.7853,-0.7864,-0.7877,-0.7877,-0.7891,-0.7895,-0.7897,-0.7897,-0.7899,-0.7899,-0.7898,-0.7904,-0.7903,-0.7903,-0.7903,0,-0.7708,-0.7717,-0.7739,-0.7747,-0.7757,-0.7773,-0.7783,-0.7793,-0.7807,-0.7817,-0.7828,-0.7837,-0.7854,-0.7865,-0.7875,-0.7886,-0.789,-0.7896,-0.7898,-0.7894,-0.7894,-0.7899,-0.7899,-0.7904,-0.7904,-0.7904,-0.7904,0,-0.7699,-0.7714,-0.7729,-0.775,-0.7755,-0.7762,-0.778,-0.7787,-0.7799,-0.7811,-0.7814,-0.7832,-0.7845,-0.7859,-0.7877,-0.7884,-0.7895,-0.7899,-0.789,-0.7891,-0.7893,-0.7893,-0.7896,-0.7897,-0.7901,-0.7901,-0.7901,0,-0.7698,-0.7706,-0.7727,-0.7735,-0.7745,-0.7757,-0.7766,-0.7781,-0.779,-0.7808,-0.7814,-0.7828,-0.784,-0.7861,-0.7875,-0.7889,-0.7893,-0.7893,-0.7895,-0.7891,-0.7893,-0.7892,-0.7893,-0.7892,-0.7892,-0.7892,-0.7892,0,-0.7695,-0.7702,-0.7715,-0.773,-0.7741,-0.7754,-0.7767,-0.7772,-0.779,-0.78,-0.7814,-0.7823,-0.7842,-0.7856,-0.7872,-0.7881,-0.789,-0.7891,-0.7893,-0.7889,-0.7884,-0.7887,-0.7888,-0.7891,-0.7891,-0.7891,-0.7891,-0.7891,-0.769,-0.7697,-0.7714,-0.7728,-0.7739,-0.7752,-0.776,-0.7773,-0.7785,-0.7802,-0.781,-0.7824,-0.784,-0.7862,-0.7871,-0.7882,-0.7884,-0.7886,-0.7887,-0.7887,-0.7886,-0.7882,-0.7885,-0.7885,-0.7885,-0.7885,-0.7885,0,-0.7687,-0.7698,-0.7711,-0.773,-0.7741,-0.7748,-0.7763,-0.7772,-0.7784,-0.7798,-0.781,-0.7827,-0.784,-0.7856,-0.7871,-0.7877,-0.7881,-0.788,-0.788,-0.7882,-0.7883,-0.788,-0.7876,-0.7876,-0.7876,-0.7876,-0.7876,-0.7876,-0.7687,-0.77,-0.7709,-0.7728,-0.7739,-0.7754,-0.7762,-0.7773,-0.7784,-0.7802,-0.7814,-0.7824,-0.7839,-0.7855,-0.7868,-0.7872,-0.7877,-0.7875,-0.788,-0.7881,-0.7881,-0.7882,-0.788,-0.7876,-0.7876,-0.7878,-0.7878,-0.7878]}]]